User: anonymous   Login
Location: Unspecified
(0.0000°N, 0.0000°E)
Time: 12:49:58
(UTC+00:00)
Language:

S80/T - Orbit

View from above orbital plane
View from above orbital plane
View from above satellite
View from above satellite

Ground track
Ground track

The orbit data is extracted from the following two-line orbital elements,

1 22078U 92052C   17229.89606494 -.00000077 +00000-0 -58652-4 0  9990
2 22078 066.0831 187.7353 0013701 310.1433 049.8384 12.86787317175432
Epoch (UTC): 17 August 2017 21:30:20
Eccentricity: 0.0013701
inclination: 66.0831°
perigee height: 1304 km
apogee height: 1325 km
right ascension of ascending node: 187.7353°
argument of perigee: 310.1433°
revolutions per day: 12.86787317
mean anomaly at epoch: 49.8384°
orbit number at epoch: 17543

The dashed part of the orbit path shows where the satellite is in the earth's shadow,  

DLR